Regional Weather Roundup
Issued by NWS

Home | Current Version | Previous Version | Graphics & Text | Print | Product List | Glossary On
Versions: 1 2 3 4 5 6 7 8 9 10 11 12 13 14 15 16 17 18 19 20 21 22 23 24 25 26 27 28 29 30 31 32 33 34 35 36 37 38 39 40 41 42 43 44 45 46 47 48 49 50
000
ASUS43 KTOP 202059
RWRKS

WEATHER ROUNDUP FOR KANSAS
NATIONAL WEATHER SERVICE GOODLAND KS
400 PM CDT SUN AUG 20 2017

NOTE:  "FAIR" INDICATES FEW OR NO CLOUDS BELOW 12,000 FEET WITH NO
SIGNIFICANT WEATHER AND/OR OBSTRUCTIONS TO VISIBILITY.

KSZ001>006-013>018-027>032-041>047-202200-
NORTHWEST KANSAS

CITY           SKY/WX    TMP DP  RH WIND       PRES   REMARKS
GOODLAND       SUNNY     92  59  33 S12       29.96F
HAYS           SUNNY     99  62  29 SW13      29.87F HX 100
HILL CITY      SUNNY    100  61  27 S13       29.88F HX 101
RUSSELL        SUNNY     97  63  32 S15G26    29.87F HX  98
$$

KSZ061>065-074>080-084>089-202200-
SOUTHWEST KANSAS

CITY           SKY/WX    TMP DP  RH WIND       PRES   REMARKS
DODGE CITY     MOSUNNY   97  59  28 S20       29.94F HX  96
ELKHART          N/A     88  65  46 S16         N/A
GARDEN CITY    MOSUNNY   91  62  37 S18G25    29.94F
GREAT BEND     MOSUNNY   97  65  34 S14       29.90S HX  99
LIBERAL        MOSUNNY   90  66  45 S16       29.97S
$$

KSZ066>073-081>083-090>101-202200-
SOUTHEAST KANSAS

CITY           SKY/WX    TMP DP  RH WIND       PRES   REMARKS
CHANUTE        SUNNY     94  74  52 S12       29.95F HX 104
COFFEYVILLE    SUNNY     94  77  57 S13       29.94S HX 108
HUTCHINSON     SUNNY     96  66  37 S18       29.90F HX  99
MEDICINE LODGE   N/A     96  66  37 S17G24    29.90F HX  99
NEWTON         MOSUNNY   94  74  52 S15       29.93F HX 104
PARSONS        SUNNY     94  75  54 S9        29.96S HX 105
WICHITA INTL   MOSUNNY   97  72  44 S18       29.92F HX 105
WICHITA JABRA  SUNNY     92  75  57 S10G21    29.93F HX 103
WICHITA MCCONL SUNNY     95  70  45 SW15      29.93F HX 101
WINFIELD       MOSUNNY   93  70  46 S15       29.94F HX  99
$$

KSZ007>012-019>026-033>040-048>060-102>105-202200-
NORTHEAST KANSAS

CITY           SKY/WX    TMP DP  RH WIND       PRES   REMARKS
CONCORDIA      MOSUNNY   92  74  55 SE8       29.89F HX 101
EMPORIA        SUNNY     93  72  50 S16       29.94S HX 101
LAWRENCE       PTSUNNY   87  75  67 E8        29.98S HX  96
MANHATTAN      SUNNY     95  74  50 SE12      29.90F HX 105
OLATHE IND     MOSUNNY   88  74  63 E8        30.01R HX  96
OLATHE EXE     MOSUNNY   87  75  67 SE9       30.01R HX  96
SALINA         SUNNY    101  67  32 S16G25    29.88S HX 106
TOPEKA BILLARD PTSUNNY   89  76  65 E14       29.96R HX 100
TOPEKA FORBES  PTSUNNY   90  76  63 E12       29.96S HX 101
$$




USA.gov is the U.S. government's official web portal to all federal, state and local government web resources and services.